Windsor Heights, WV

3:33 AM EST on February 14, 2016 (GMT -0500)
Wheeling-Ohio County

Weather History for KHLG - February, 2014

Change the Weather History Date:

Monday, February 17, 2014

  Actual Average Record
Temperature  
Mean Temperature 20 °F 32 °F  
Max Temperature 34 °F 40 °F 62 °F (2006)
Min Temperature 6 °F 24 °F 1 °F (2015)
Degree Days  
Heating Degree Days 45 33  
Month to date heating degree days 688 579  
Since 1 July heating degree days 4093 3821  
Cooling Degree Days 0    
Month to date cooling degree days 0  
Year to date cooling degree days 0  
Moisture  
Dew Point 15 °F    
Average Humidity 67    
Maximum Humidity 92    
Minimum Humidity 42    
Precipitation  
Precipitation 0.07 in 0.07 in 0.62 in (1993)
Month to date precipitation 1.26 1.28  
Sea Level Pressure  
Sea Level Pressure 30.10 in    
Wind  
Wind Speed 12 mph (ESE)    
Max Wind Speed 26 mph    
Max Gust Speed 35 mph    
Visibility 7 miles    
Events Snow    
T = Trace of Precipitation, MM = Missing Value Source: NWS Daily Summary

Daily Weather History Graph

Daily Weather History Graph

Search for Another Location

Airport or City:

Trip Planner

Search our weather history database for the weather conditions in past years. The results will help you decide how hot, cold, wet, or windy it might be!

Date:

Astronomy

Feb. 17, 2014 Rise Set
Actual Time 7:13 AM EST 6:00 PM EST
Civil Twilight 6:45 AM EST 6:28 PM EST
Nautical Twilight 6:13 AM EST 7:00 PM EST
Astronomical Twilight 5:42 AM EST 7:31 PM EST
Moon 8:54 PM EST (2/17) 8:12 AM EST (2/17)
Length of Visible Light 11h 43m
Length of Day
10h 47m
Waning Gibbous, 93% of the Moon is Illuminated
Feb 17
Waning Gibbous
Feb 22
Last Quarter
Mar 1
New
Mar 8
First Quarter
Mar 16
Full

Hourly Weather History & Observations

Time (EST) Temp. Windchill Dew Point Humidity Pressure Visibility Wind Dir Wind Speed Gust Speed Precip Events Conditions
12:53 AM 14.0 °F 3.9 °F 9.0 °F 80% 30.37 in 9.0 mi NNW 6.9 mph - N/A   Clear
1:53 AM 12.0 °F 4.1 °F 8.1 °F 84% 30.38 in 7.0 mi NNE 4.6 mph - N/A   Partly Cloudy
2:53 AM 12.9 °F 1.6 °F 8.1 °F 81% 30.37 in 10.0 mi NNE 8.1 mph - N/A   Clear
3:53 AM 10.9 °F 0.2 °F 7.0 °F 84% 30.36 in 8.0 mi NNE 6.9 mph - N/A   Clear
4:53 AM 10.0 °F 1.8 °F 8.1 °F 92% 30.37 in 7.0 mi ENE 4.6 mph - N/A   Clear
5:53 AM 9.0 °F 2.4 °F 6.1 °F 88% 30.40 in 8.0 mi ESE 3.5 mph - N/A   Clear
6:53 AM 10.0 °F 3.6 °F 7.0 °F 87% 30.41 in 7.0 mi East 3.5 mph - N/A   Clear
7:53 AM 9.0 °F -2.2 °F 6.1 °F 88% 30.42 in 7.0 mi East 6.9 mph - N/A   Clear
8:53 AM 10.9 °F -1.8 °F 8.1 °F 88% 30.43 in 8.0 mi East 9.2 mph - N/A   Clear
9:53 AM 14.0 °F 2.0 °F 9.0 °F 80% 30.41 in 10.0 mi ESE 9.2 mph - N/A   Clear
10:53 AM 19.0 °F 8.2 °F 9.0 °F 65% 30.39 in 10.0 mi East 9.2 mph - N/A   Clear
11:53 AM 21.0 °F 8.1 °F 7.0 °F 55% 30.35 in 10.0 mi ESE 13.8 mph - N/A   Clear
12:53 PM 24.1 °F 13.1 °F 8.1 °F 51% 30.29 in 10.0 mi ESE 11.5 mph - N/A   Overcast
1:53 PM 26.1 °F 15.6 °F 7.0 °F 44% 30.22 in 10.0 mi East 11.5 mph - N/A   Overcast
2:53 PM 28.0 °F 16.1 °F 9.0 °F 45% 30.17 in 10.0 mi East 16.1 mph - N/A   Partly Cloudy
3:53 PM 28.9 °F 17.3 °F 10.0 °F 45% 30.13 in 10.0 mi East 16.1 mph - N/A   Overcast
4:53 PM 30.0 °F 19.5 °F 10.9 °F 45% 30.05 in 10.0 mi East 13.8 mph - N/A   Overcast
5:53 PM 30.9 °F 18.4 °F 10.9 °F 43% 29.97 in 10.0 mi East 20.7 mph 27.6 mph N/A   Overcast
6:53 PM 32.0 °F 21.6 °F 12.9 °F 45% 29.96 in 10.0 mi East 15.0 mph - N/A   Overcast
7:53 PM 32.0 °F 21.6 °F 14.0 °F 48% 29.93 in 10.0 mi ESE 15.0 mph - N/A   Overcast
8:38 PM 32.0 °F 22.5 °F 18.0 °F 56% 29.84 in 2.0 mi SE 12.7 mph - 0.00 in Snow Light Snow
8:45 PM 30.0 °F 18.7 °F 21.9 °F 72% 29.83 in 1.2 mi ESE 16.1 mph 21.9 mph 0.03 in Snow Light Snow
8:53 PM 30.0 °F 19.1 °F 23.0 °F 75% 29.89 in 3.0 mi SE 15.0 mph 25.3 mph 0.04 in Snow Light Snow
9:01 PM 30.9 °F 19.1 °F 23.0 °F 72% 29.83 in 4.0 mi ESE 18.4 mph 25.3 mph 0.00 in Snow Light Snow
9:14 PM 30.0 °F 17.2 °F 24.1 °F 79% 29.82 in 1.8 mi SE 20.7 mph 34.5 mph 0.01 in Snow Light Snow
9:31 PM 30.0 °F 16.9 °F 25.0 °F 82% 29.79 in 3.0 mi ESE 21.9 mph 26.5 mph 0.02 in Snow Light Snow
9:53 PM 30.9 °F 20.2 °F 25.0 °F 79% 29.84 in 10.0 mi SE 15.0 mph 23.0 mph 0.02 in   Overcast
10:53 PM 33.1 °F 21.5 °F 26.1 °F 75% 29.79 in 5.0 mi SE 19.6 mph 26.5 mph 0.00 in Snow Light Snow
11:20 PM 34.0 °F 25.0 °F 28.0 °F 79% 29.77 in 2.5 mi South 12.7 mph - 0.00 in Snow Light Snow
11:41 PM 34.0 °F 24.2 °F 30.0 °F 85% 29.78 in 3.0 mi SSW 15.0 mph - 0.00 in Snow Light Snow
11:53 PM 34.0 °F 22.4 °F 30.9 °F 89% 29.83 in 2.5 mi SSW 20.7 mph 27.6 mph 0.01 in Snow Light Snow
11:59 PM 34.0 °F 23.0 °F 30.9 °F 89% 29.78 in 2.5 mi SSW 18.4 mph 27.6 mph 0.00 in Snow Light Snow